Weather History for KOTM - October, 2014

Change the Weather History Date:

Wednesday, October 15, 2014

  Actual Average Record
Temperature  
Mean Temperature 54 °F 53 °F  
Max Temperature 67 °F 64 °F 90 °F (1938)
Min Temperature 41 °F 42 °F 21 °F (1937)
Degree Days  
Heating Degree Days 11 13  
Month to date heating degree days 188 155  
Since 1 July heating degree days 322 276  
Cooling Degree Days 0 0  
Month to date cooling degree days 0 9  
Year to date cooling degree days 800 936  
Growing Degree Days 4 (Base 50)    
Moisture  
Dew Point 38 °F    
Average Humidity 61    
Maximum Humidity 89    
Minimum Humidity 32    
Precipitation  
Precipitation 0.00 in 0.09 in 1.02 in (1919)
Month to date precipitation 3.51 1.39  
Year to date precipitation 38.96 31.88  
Sea Level Pressure  
Sea Level Pressure 29.89 in    
Wind  
Wind Speed 12 mph (NNW)    
Max Wind Speed 26 mph    
Max Gust Speed 32 mph    
Visibility 10 miles    
Events      
T = Trace of Precipitation, MM = Missing Value Source: NWS Daily Summary

Daily Weather History Graph

Daily Weather History Graph

Search for Another Location

Airport or City:

Trip Planner

Search our weather history database for the weather conditions in past years. The results will help you decide how hot, cold, wet, or windy it might be!

Date:

Astronomy

Oct. 15, 2014 Rise Set
Actual Time 7:21 AM CDT 6:29 PM CDT
Civil Twilight 6:53 AM CDT 6:56 PM CDT
Nautical Twilight 6:21 AM CDT 7:28 PM CDT
Astronomical Twilight 5:49 AM CDT 8:00 PM CDT
Moon No Moon Rise 2:04 PM CDT (10/15)
Length of Visible Light 12h 03m
Length of Day
11h 07m
Waning Gibbous, 51% of the Moon is Illuminated
Oct 15
Waning Gibbous
Oct 15
Last Quarter
Oct 23
New
Oct 30
First Quarter
Nov 6
Full

Hourly Weather History & Observations

Time (CDT) Temp. Windchill Dew Point Humidity Pressure Visibility Wind Dir Wind Speed Gust Speed Precip Events Conditions
12:53 AM 52.0 °F - 43.0 °F 71% 29.83 in 10.0 mi NNW 13.8 mph - N/A   Overcast
1:53 AM 48.9 °F - 42.1 °F 77% 29.85 in 10.0 mi NW 11.5 mph - N/A   Mostly Cloudy
2:53 AM 46.9 °F - 39.9 °F 77% 29.87 in 10.0 mi NW 12.7 mph - N/A   Partly Cloudy
3:53 AM 45.0 °F 39.3 °F 39.0 °F 80% 29.86 in 10.0 mi NNW 11.5 mph - N/A   Clear
4:53 AM 44.1 °F 38.1 °F 37.9 °F 79% 29.87 in 10.0 mi NW 11.5 mph - N/A   Clear
5:53 AM 43.0 °F 36.8 °F 37.0 °F 80% 29.89 in 10.0 mi NW 11.5 mph - N/A   Clear
6:53 AM 42.1 °F 36.1 °F 36.0 °F 79% 29.91 in 10.0 mi NW 10.4 mph - N/A   Clear
7:53 AM 43.0 °F 36.4 °F 36.0 °F 76% 29.92 in 10.0 mi NW 12.7 mph - N/A   Clear
8:53 AM 46.9 °F - 37.9 °F 71% 29.92 in 10.0 mi NNW 15.0 mph 21.9 mph N/A   Clear
9:53 AM 52.0 °F - 39.0 °F 61% 29.91 in 10.0 mi North 15.0 mph - N/A   Clear
10:53 AM 55.9 °F - 41.0 °F 57% 29.91 in 10.0 mi North 16.1 mph 24.2 mph N/A   Clear
11:53 AM 60.1 °F - 41.0 °F 49% 29.90 in 10.0 mi NNW 17.3 mph 24.2 mph N/A   Clear
12:53 PM 62.1 °F - 39.9 °F 44% 29.89 in 10.0 mi NNW 19.6 mph 27.6 mph N/A   Clear
1:53 PM 64.9 °F - 37.9 °F 37% 29.86 in 10.0 mi NNW 24.2 mph 31.1 mph N/A   Clear
2:53 PM 66.0 °F - 37.0 °F 34% 29.88 in 10.0 mi NNW 18.4 mph - N/A   Clear
3:53 PM 66.0 °F - 35.1 °F 32% 29.86 in 10.0 mi NNW 19.6 mph 28.8 mph N/A   Clear
4:53 PM 66.0 °F - 35.1 °F 32% 29.87 in 10.0 mi North 13.8 mph - N/A   Clear
5:53 PM 62.1 °F - 37.0 °F 39% 29.88 in 10.0 mi NNW 10.4 mph - N/A   Clear
6:53 PM 54.0 °F - 37.9 °F 55% 29.89 in 10.0 mi NNW 6.9 mph - N/A   Clear
7:53 PM 51.1 °F - 37.9 °F 61% 29.90 in 10.0 mi North 8.1 mph - N/A   Clear
8:53 PM 55.0 °F - 36.0 °F 49% 29.91 in 10.0 mi North 4.6 mph - N/A   Clear
9:53 PM 52.0 °F - 37.0 °F 57% 29.90 in 10.0 mi NNE 5.8 mph - N/A   Clear
10:53 PM 46.9 °F - 39.9 °F 77% 29.91 in 10.0 mi Calm Calm - N/A   Clear
11:53 PM 43.0 °F - 39.0 °F 86% 29.89 in 10.0 mi Calm Calm - N/A   Clear